Location: Kuffner-Sternwarte
(48.2130°N, 16.2960°E)
Time: 08:14:41
(UTC+02:00)

COROT - Pass Details

Date: 13 January 2018
Orbit: 602 x 887 km, 90.0° (Epoch: 16 July)

Event Time Altitude Azimuth Distance (km) Brightness Sun altitude
Rises 06:19:53 0° 350° (N) 2,877 8.7 -13.2°
Reaches altitude 10° 06:22:24 10° 337° (NNW) 1,959 7.7 -12.8°
Maximum altitude 06:25:49 24° 283° (WNW) 1,263 6.5 -12.3°
Drops below altitude 10° 06:29:15 10° 229° (SW) 1,965 7.8 -11.7°
Sets 06:31:46 0° 216° (SW) 2,887 8.8 -11.3°
